Location: Buisson
(44.2787°N, 4.9969°E)
Time: 22:38:42
(UTC+00:00)

X-37B - Pass Details

Date: 27 September 2021
Orbit: 385 x 389 km, 45.0° (Epoch: 17 October)

Event Time Altitude Azimuth Distance (km) Brightness Sun altitude
Exits shadow 03:21:50 33° 85° (E) 668 2.3 -23.8°
Drops below altitude 10° 03:23:46 10° 80° (E) 1,415 4.5 -23.5°
Sets 03:25:50 0° 79° (ENE) 2,271 5.9 -23.1°
